Location: Borowce
(50.8255°N, 19.6209°E)
Time: 07:58:16
(UTC+00:00)

ATLAS 3B R/B - Pass Details

Date: 19 May 2025
Orbit: 935 x 1258 km, 63.8° (Epoch: 16 June)

Event Time Altitude Azimuth Distance (km) Brightness Sun altitude
Exits shadow 23:17:17 - 241° (WSW) 3,152 4.8 -18.7°
Reaches altitude 10° 23:17:26 10° 242° (WSW) 3,102 4.8 -18.7°
Maximum altitude 23:24:53 62° 322° (NW) 1,376 3.4 -18.4°
Drops below altitude 10° 23:32:42 10° 43° (NE) 3,247 6.1 -18.2°
Sets 23:35:36 0° 47° (NE) 4,220 6.8 -18.1°
